Location: Fort Wayne
(41.1310°N, 85.1290°W)
Time: 01:21:26
(UTC-04:00)

OPAL - Visible Passes

Search period start: 21 October 2014 00:00
Search period end: 31 October 2014 00:00
Orbit: 744 x 797 km, 100.2° (Epoch: 19 October)

Date Brightness Start Highest point End Pass type
(mag) Time Alt. Az. Time Alt. Az. Time Alt. Az.
21 Oct 9.0 05:11:32 10° SE 05:16:13 36° ENE 05:20:51 10° N visible
21 Oct 8.3 06:50:41 10° SSW 06:55:06 28° W 06:59:30 10° NW visible
21 Oct 10.3 20:40:27 10° NNW 20:42:58 14° WNW 20:45:29 10° W visible
22 Oct 10.0 04:37:55 10° ESE 04:41:19 18° ENE 04:44:42 10° NNE visible
22 Oct 7.5 06:14:37 10° S 06:19:43 61° WSW 06:24:48 10° NNW visible
22 Oct 9.5 20:03:56 10° N 20:08:08 28° WNW 20:12:19 10° WSW visible
23 Oct 7.9 05:39:25 10° SSE 05:44:31 63° ENE 05:49:34 10° N visible
23 Oct 9.0 07:20:42 10° SW 07:23:46 16° W 07:26:50 10° WNW visible
23 Oct 8.1 19:28:13 10° N 19:33:07 60° WNW 19:37:58 10° SSW visible
24 Oct 9.3 05:05:03 10° SE 05:09:29 30° ENE 05:13:52 10° N visible
24 Oct 8.1 06:43:35 10° SSW 06:48:15 34° W 06:52:53 10° NW visible
24 Oct 10.2 20:33:10 10° NNW 20:36:17 17° WNW 20:39:22 10° W visible
25 Oct 10.2 04:31:49 10° E 04:34:38 15° ENE 04:37:26 10° NNE visible
25 Oct 7.4 06:07:46 10° S 06:12:55 75° WSW 06:18:01 10° NNW visible
25 Oct 9.1 19:56:56 10° N 20:01:24 34° WNW 20:05:48 10° SW visible
26 Oct 8.3 05:32:47 10° SE 05:37:45 51° ENE 05:42:40 10° N visible
26 Oct 8.8 07:13:15 10° SW 07:16:52 19° W 07:20:29 10° NW visible
26 Oct 7.7 19:21:21 10° NNE 19:26:19 74° WNW 19:31:14 10° SSW visible
27 Oct 9.5 04:58:39 10° ESE 05:02:45 25° ENE 05:06:50 10° N visible
27 Oct 7.9 06:36:34 10° S 06:41:24 41° W 06:46:13 10° NNW visible
27 Oct 10.0 20:26:00 10° NNW 20:29:34 20° WNW 20:33:06 10° WSW visible
28 Oct 10.4 04:25:56 10° E 04:27:57 12° ENE 04:29:59 10° NNE visible
28 Oct 7.4 06:00:57 10° SSE 06:06:06 90° WSW 06:11:12 10° NNW visible
28 Oct 8.8 19:49:59 10° N 19:54:37 41° WNW 19:59:14 10° SW visible
29 Oct 8.6 05:26:11 10° SE 05:30:59 42° ENE 05:35:44 10° N visible
29 Oct 8.6 07:05:57 10° SSW 07:09:59 23° W 07:14:01 10° NW visible
29 Oct 7.5 19:14:31 10° NNE 19:19:30 90° NW 19:24:26 10° SSW visible
29 Oct 10.4 20:55:55 10° NW 20:57:37 12° WNW 20:59:19 10° WNW visible
30 Oct 9.8 04:52:18 10° ESE 04:56:02 21° ENE 04:59:44 10° NNE visible
30 Oct 7.6 06:29:35 10° S 06:34:33 50° WSW 06:39:29 10° NNW visible
30 Oct 9.7 20:18:55 10° N 20:22:50 24° WNW 20:26:44 10° WSW visible
